This demonstration page uses our WeatherBlox Daily Observations layout. Learn more.

Left ArrowRight Arrow

41.86663, -103.66717

Hourly Observations for October 7, 2022

Temp ( °F °C ) Dew Point ( °F °C ) Humidity (%) Winds ( mph kmh ) Pressure ( in mb ) Visibility ( mi km ) Precip ( " mm )
12:53 am 00:53 Cloudy 43 6.1 39 3.9 86 86 NE 8 13 30.44 1031 10 16 0.03 0.76
1:04 am 01:04 Cloudy 42 5.6 37 2.8 82 82 NE 10 17 30.52 1034 10 16 0.00 0.00
1:53 am 01:53 Cloudy 41 5 37 2.8 86 86 ENE 10 17 30.46 1032 10 16 0.00 0.00
2:00 am 02:00 Cloudy 41 5 37 2.8 86 86 ENE 10 17 30.54 1034 10 16 0.00 0.00
2:18 am 02:18 Cloudy 40 4.4 36 2.2 86 86 E 10 17 30.55 1035 8 13 0.00 0.00
2:41 am 02:41 Cloudy 40 4.4 36 2.2 86 86 E 8 13 30.55 1035 10 16 0.00 0.00
2:53 am 02:53 Cloudy 40 4.4 36 2.2 86 86 E 9 15 30.47 1032 10 16 0.00 0.00
3:14 am 03:14 Cloudy 40 4.4 36 2.2 86 86 E 9 15 30.55 1035 10 16 0.00 0.00
3:53 am 03:53 Cloudy 40 4.4 36 2.2 86 86 E 8 13 30.49 1032 10 16 0.00 0.00
4:35 am 04:35 Cloudy with Light Rain 39 3.9 36 2.2 89 89 E 8 13 30.55 1035 10 16 0.03 0.76
4:53 am 04:53 Cloudy with Light Rain 39 3.9 36 2.2 89 89 E 6 9 30.50 1033 10 16 0.03 0.76
5:39 am 05:39 Cloudy 40 4.4 35 1.7 83 83 ESE 6 9 30.55 1035 10 16 0.01 0.13
5:53 am 05:53 Cloudy 40 4.4 35 1.7 83 83 ESE 7 11 30.51 1033 10 16 0.01 0.13
6:53 am 06:53 Cloudy 40 4.4 36 2.2 86 86 E 6 9 30.52 1034 10 16 0.00 0.00
7:53 am 07:53 Cloudy 40 4.4 36 2.2 86 86 ESE 9 15 30.54 1034 10 16 0.00 0.00
8:53 am 08:53 Cloudy 41 5 37 2.8 86 86 ESE 10 17 30.55 1035 10 16 0.00 0.00
9:14 am 09:14 Cloudy 41 5 37 2.8 86 86 ESE 9 15 30.56 1035 10 16 0.00 0.00
9:51 am 09:51 Cloudy 41 5 37 3 87 87 SE 8 13 30.56 1035 10 16 0.00 0.00
9:53 am 09:53 Cloudy 41 5 37 2.8 86 86 ESE 8 13 30.55 1035 10 16 0.00 0.00
10:53 am 10:53 Cloudy 42 5.6 37 2.8 82 82 SE 8 13 30.54 1034 10 16 0.00 0.00
11:00 am 11:00 Cloudy 43 6.1 38 3.3 82 82 SE 9 15 30.54 1034 10 16 0.00 0.00
11:53 am 11:53 Cloudy 44 6.7 38 3.3 79 79 E 7 11 30.52 1034 10 16 0.00 0.00
12:53 pm 12:53 Cloudy 46 7.8 38 3.3 73 73 ESE 6 9 30.50 1033 10 16 0.00 0.00
1:23 pm 13:23 Cloudy 48 8.9 39 3.9 71 71 ESE 7 11 30.44 1031 10 16 0.00 0.00
1:53 pm 13:53 Cloudy 49 9.4 39 3.9 68 68 SE 5 7 30.46 1032 10 16 0.00 0.00
2:53 pm 14:53 Cloudy 51 10.6 39 3.9 63 63 SE 5 7 30.44 1031 10 16 0.00 0.00
3:53 pm 15:53 Cloudy 52 11.1 39 3.9 61 61 ESE 5 7 30.43 1030 10 16 0.00 0.00
4:53 pm 16:53 Cloudy 53 11.7 40 4.4 61 61 ESE 6 9 30.42 1030 10 16 0.00 0.00
5:53 pm 17:53 Cloudy 52 11.1 40 4.4 63 63 E 3 6 30.41 1030 10 16 0.00 0.00
6:53 pm 18:53 Cloudy 50 10 40 4.4 68 68 ESE 5 7 30.42 1030 10 16 0.00 0.00
7:53 pm 19:53 Clear 46 7.8 41 5 82 82 E 3 6 30.45 1031 10 16 0.00 0.00
8:53 pm 20:53 Clear 44 6.7 39 3.9 82 82 ESE 7 11 30.45 1031 10 16 0.00 0.00
9:53 pm 21:53 Clear 40 4.4 36 2.2 86 86 undefined N/A 30.47 1032 10 16 0.00 0.00
10:53 pm 22:53 Clear 39 3.9 35 1.7 86 86 E 6 9 30.47 1032 10 16 0.00 0.00
11:53 pm 23:53 Clear 37 2.8 34 1.1 89 89 E 5 7 30.46 1031 10 16 0.00 0.00

Powered by AerisWeather